Racecast

Bishop-Amer Davis

M.P. Striders Youth Track (CA) · 3 · STS · Compare head to head

Athlete rating 114.5 2015 TF season
Best race 116.0 TF
Races 49
Seasons 3 2014 — 2016
Rating scale ?
Speed rating — all races

Track & Field

TF speed rating

2016 TF

M.P. Striders Youth Track (CA) · Grade 3

Date Meet Event Result Place Rating Difficulty PR/SR Flags
2016-07-31 USATF National Junior Olympic Championships 1500m-rw 10:46.09 3rd · 1st on team +0.012 ★PR SR
2016-06-12 USATF Pacific Association Youth Championship 200m 31.94 24th · 1st on team -0.035
2016-06-12 USATF Pacific Association Youth Championship 400m 1:11.48 9th · 1st on team -0.035 ★PR SR
2016-06-12 USATF Pacific Association Youth Championship 800m 2:58.05 21st · 1st on team -0.035 ★PR SR
2016-05-29 Central Valley Roadrunners USATF Youth javelin 8.22m -0.030
2016-05-29 Central Valley Roadrunners USATF Youth 1500m 6:26.79 10th · 1st on team -0.030 ★PR SR
2016-05-29 Central Valley Roadrunners USATF Youth 100m 15.14 19th · 1st on team -0.030
2016-05-15 3M USATF Youth T&F Meet 400m 1:13.55 15th · 1st on team -0.028 PR SR
2016-05-15 3M USATF Youth T&F Meet 100m 15.07 27th · 1st on team -0.028 ★PR SR
2016-05-15 3M USATF Youth T&F Meet 800m 3:03.04 27th · 1st on team -0.028
2016-04-09 Contra Costa Cheetahs Invitational 1500m 6:50.7 18th · 1st on team -0.017 SR
2016-04-09 Contra Costa Cheetahs Invitational 100m 15.71 11th · 1st on team -0.017 PR SR
2016-04-02 Sac Speed Factory USATF Youth T&F Meet 400m 1:19.67 45th · 1st on team -0.033 PR SR
2016-04-02 Sac Speed Factory USATF Youth T&F Meet 800m 3:02.93 14th · 1st on team -0.033 SR
2016-04-02 Sac Speed Factory USATF Youth T&F Meet 200m 31.14 14th · 1st on team -0.033 ★PR SR

2015 TF 110.7

M.P. Striders Youth Track (CA) · Grade 3

Date Meet Event Result Place Rating Difficulty PR/SR Flags
2015-06-21 USATF Pacific Association Junior Olympic Championships 800m 3:02.5 24th · 2nd on team 114.9 -0.031
2015-05-31 PAC (Pacific Association Youth Champions 800m 3:02.27 20th · 2nd on team 116.0 -0.024 PR ★R SR RSR
2015-05-02 Running Rebels/Top Pacers Invitational 1500m 6:29.83 11th · 1st on team 108.1 -0.038
2015-04-25 Revolution Express Track Club 800m 3:12.72 8th · 3rd on team 109.5 -0.024
2015-04-11 Big Valley Track Club Invitational 800m 3:24.57 22nd · 2nd on team 103.2 -0.027
2015-04-11 Big Valley Track Club Invitational 1500m 6:27.71 6th · 1st on team 110.3 -0.027 PR SR
2015-04-04 Sacramento Speed Factory javelin 9.93m -0.033
2015-04-04 Sacramento Speed Factory 800m 3:06.05 18th · 2nd on team 112.6 -0.033 PR R SR RSR
2015-03-21 RPM Legacy 100m 15.86 33rd · 2nd on team -0.020 PR SR
2015-03-21 RPM Legacy 400m 1:21.85 48th · 2nd on team -0.020 SR

2014 TF 107.7

M.P. Striders Youth Track (CA) · Grade 3

Date Meet Event Result Place Rating Difficulty PR/SR Flags
2014-06-20 USATF Pacific Assoc. Junior Olympics (Top 8) 400m 1:21.72 20th · 1st on team -0.031 PR SR
2014-06-20 USATF Pacific Assoc. Junior Olympics (Top 8) 1500m 6:38.37 6th · 1st on team 106.5 -0.031
2014-06-20 USATF Pacific Assoc. Junior Olympics (Top 8) 800m 3:12.46 8th · 1st on team 108.9 -0.031
2014-05-31 Pacific Association Championships (PAC) 800m 3:09.51 7th · 1st on team 111.5 -0.024 PR R SR RSR
2014-05-31 Pacific Association Championships (PAC) 400m 1:22.82 12th · 2nd on team -0.024
2014-05-31 Pacific Association Championships (PAC) 1500m 6:31.02 4th · 1st on team 109.5 -0.024 PR SR
2014-05-24 Central Valley Roadrunners 400m 1:22.78 6th · 1st on team -0.026 PR SR
2014-05-24 Central Valley Roadrunners 1500m 6:41.35 1st · 1st on team 106.4 -0.026 PR SR
2014-05-24 Central Valley Roadrunners 800m 3:13.16 3rd · 1st on team 109.2 -0.026 PR R SR RSR
2014-05-18 3M Invitational lj 6-05.75 -0.028
2014-05-18 3M Invitational 400m 1:30.26 13th · 1st on team -0.028
2014-05-18 3M Invitational 800m 3:28.95 9th · 1st on team 100.7 -0.028
2014-04-26 Revolution Express TC 200m 35.23 9th · 1st on team -0.024
2014-04-26 Revolution Express TC 400m 1:23.13 7th · 1st on team -0.024 PR SR
2014-04-26 Revolution Express TC 100m 16.48 10th · 1st on team -0.024
2014-04-19 3rd Annual Shor/Sheppard Classic Meet lj 2.56m -0.022
2014-04-19 3rd Annual Shor/Sheppard Classic Meet 100m 16.15 6th · 1st on team -0.022
2014-04-19 3rd Annual Shor/Sheppard Classic Meet 800m 3:13.73 2nd · 1st on team 109.1 -0.022 PR R SR RSR
2014-04-05 Sacramento Speed Showcase 400m 1:30.2 25th · 1st on team -0.033
2014-04-05 Sacramento Speed Showcase 200m 35.17 6th · 1st on team -0.033 PR SR
2014-04-05 Sacramento Speed Showcase 100m 16 15th · 1st on team -0.033 PR SR
2014-03-22 RPM lj 7-08.50 -0.012
2014-03-22 RPM 100m 16.64 18th · 1st on team -0.012 PR SR
2014-03-22 RPM 400m 1:27.44 17th · 1st on team -0.012 PR SR